User: anonymous   Login
Location: Unspecified
(0.0000°N, 0.0000°E)
Time: 19:02:19
(UTC+00:00)
Language:

TBA - TO BE ASSIGNED - Orbit

View from above orbital plane
View from above orbital plane
View from above satellite
View from above satellite

Ground track
Ground track

The orbit is defined by the following mean orbital elements,

1 67907U          26145.54916351 +.00000000 +00000-0 +52741-3 0 00006
2 67907  42.9998 171.4793 0001685 274.3617  85.7043 15.27589406    08
Epoch (UTC): 25 May 2026 13:10:47
Eccentricity: 0.0001685
inclination: 42.9998°
perigee height: 482 km
apogee height: 484 km
right ascension of ascending node: 171.4793°
argument of perigee: 274.3617°
revolutions per day: 15.27589406
mean anomaly at epoch: 85.7043°

The dashed part of the orbit path shows where the satellite is in the earth's shadow,  

DLR